Weather History for West Palm Beach, FL

Change the Weather History Date:

Saturday, June 22, 2013

  Actual Average Record
Temperature  
Mean Temperature 85 °F 82 °F  
Max Temperature 89 °F 89 °F 96 °F (2009)
Min Temperature 80 °F 75 °F 67 °F (1913)
Degree Days  
Heating Degree Days 0 0  
Month to date heating degree days 0 0  
Since 1 June heating degree days 0 0  
Since 1 July heating degree days 164 233  
Cooling Degree Days 20 17  
Month to date cooling degree days 336 356  
Year to date cooling degree days 1521 1465  
Since 1 June cooling degree days 336 356  
Growing Degree Days 34 (Base 50)    
Moisture  
Dew Point 70 °F    
Average Humidity 60    
Maximum Humidity 69    
Minimum Humidity 50    
Precipitation  
Precipitation 0.00 in 0.27 in 2.85 in (1902)
Month to date precipitation 6.65 6.14  
Year to date precipitation 31.60 24.85  
Snow  
Snow 0.00 in - - ()
Month to date snowfall 0.0  
Since 1 June snowfall 0.0  
Since 1 July snowfall 0.0  
Snow Depth 0.00 in    
Sea Level Pressure  
Sea Level Pressure 30.08 in    
Wind  
Wind Speed 10 mph (ESE)    
Max Wind Speed 16 mph    
Max Gust Speed 22 mph    
Visibility 10 miles    
Events      
T = Trace of Precipitation, MM = Missing Value Source: NWS Daily Summary

Daily Weather History Graph

Daily Weather History Graph

Search for Another Location

Airport:

Trip Planner

Search our weather history database for the weather conditions in past years. The results will help you decide how hot, cold, wet, or windy it might be!

Date:

Astronomy

Jun. 22, 2013 Rise Set
Actual Time 6:27 AM EDT 8:17 PM EDT
Civil Twilight 6:01 AM EDT 8:43 PM EDT
Nautical Twilight 5:29 AM EDT 9:15 PM EDT
Astronomical Twilight 4:56 AM EDT 9:48 PM EDT
Moon 7:35 PM EDT (6/22) 5:33 AM EDT (6/22)
Length of Visible Light 14h 41m
Length of Day
13h 49m
Waxing Gibbous, 99% of the Moon is Illuminated
Jun 22
Waxing Gibbous
Jun 23
Full
Jun 30
Last Quarter
Jul 8
New
Jul 15
First Quarter

Hourly Weather History & Observations

Time (EDT) Temp. Heat Index Dew Point Humidity Pressure Visibility Wind Dir Wind Speed Gust Speed Precip Events Conditions
12:53 AM 82.9 °F 86.5 °F 69.1 °F 63% 30.09 in 10.0 mi ESE 9.2 mph - N/A   Partly Cloudy
1:53 AM 82.9 °F 87.0 °F 70.0 °F 65% 30.06 in 10.0 mi ESE 10.4 mph - N/A   Scattered Clouds
2:53 AM 82.0 °F 85.9 °F 70.0 °F 67% 30.06 in 10.0 mi ESE 5.8 mph - N/A   Partly Cloudy
3:53 AM 82.0 °F 85.9 °F 70.0 °F 67% 30.05 in 10.0 mi ESE 8.1 mph - N/A   Partly Cloudy
4:53 AM 82.0 °F 85.5 °F 69.1 °F 65% 30.05 in 10.0 mi ESE 6.9 mph - N/A   Partly Cloudy
5:53 AM 81.0 °F 84.4 °F 70.0 °F 69% 30.05 in 10.0 mi ESE 6.9 mph - N/A   Partly Cloudy
6:53 AM 81.0 °F 84.4 °F 70.0 °F 69% 30.06 in 10.0 mi East 3.5 mph - N/A   Scattered Clouds
7:53 AM 82.9 °F 87.0 °F 70.0 °F 65% 30.08 in 10.0 mi ESE 8.1 mph - N/A   Scattered Clouds
8:53 AM 84.9 °F 89.4 °F 70.0 °F 61% 30.09 in 10.0 mi SE 12.7 mph - N/A   Scattered Clouds
9:53 AM 86.0 °F 90.1 °F 69.1 °F 57% 30.10 in 10.0 mi SE 11.5 mph - N/A   Scattered Clouds
10:53 AM 87.1 °F 92.0 °F 70.0 °F 57% 30.10 in 10.0 mi East 10.4 mph - N/A   Scattered Clouds
11:53 AM 88.0 °F 91.4 °F 68.0 °F 51% 30.11 in 10.0 mi ESE 8.1 mph - N/A   Scattered Clouds
12:53 PM 88.0 °F 92.1 °F 69.1 °F 53% 30.11 in 10.0 mi ENE 10.4 mph - N/A   Scattered Clouds
1:53 PM 88.0 °F 90.7 °F 66.9 °F 49% 30.10 in 10.0 mi ESE 12.7 mph - N/A   Scattered Clouds
2:53 PM 88.0 °F 93.8 °F 71.1 °F 57% 30.09 in 10.0 mi East 12.7 mph - N/A   Scattered Clouds
3:53 PM 89.1 °F 92.9 °F 68.0 °F 50% 30.07 in 10.0 mi ENE 15.0 mph - N/A   Mostly Cloudy
4:53 PM 88.0 °F 92.1 °F 69.1 °F 53% 30.07 in 10.0 mi ENE 10.4 mph - N/A   Mostly Cloudy
5:53 PM 87.1 °F 92.0 °F 70.0 °F 57% 30.06 in 10.0 mi East 11.5 mph - N/A   Mostly Cloudy
6:53 PM 86.0 °F 90.1 °F 69.1 °F 57% 30.05 in 10.0 mi East 15.0 mph - N/A   Mostly Cloudy
7:53 PM 84.9 °F 89.4 °F 70.0 °F 61% 30.06 in 10.0 mi East 12.7 mph - N/A   Mostly Cloudy
8:53 PM 84.0 °F 89.0 °F 71.1 °F 65% 30.07 in 10.0 mi East 11.5 mph - N/A   Mostly Cloudy
9:53 PM 84.0 °F 89.0 °F 71.1 °F 65% 30.08 in 10.0 mi East 10.4 mph - N/A   Mostly Cloudy
10:53 PM 84.0 °F 88.4 °F 70.0 °F 63% 30.09 in 10.0 mi ESE 9.2 mph - N/A   Mostly Cloudy
11:53 PM 82.9 °F 87.0 °F 70.0 °F 65% 30.10 in 10.0 mi SE 8.1 mph - N/A   Scattered Clouds